| time (UTC) | temp F | wind direction | speed knots | gust knots | rain 1hr in | rain 24hr in | rain mn in | humidity % | barometer mb |
| 20260506023532 | 35 | 94 | 1.7 | 3.5 | 0.00 | 0.06 | 0.00 | 84 | 1013.9 |
| 20260506023032 | 35 | 98 | 1.7 | 3.5 | 0.00 | 0.06 | 0.00 | 84 | 1013.9 |
| 20260506022530 | 35 | 94 | 1.7 | 3.5 | 0.00 | 0.06 | 0.00 | 84 | 1013.9 |
| 20260506022030 | 35 | 98 | 1.7 | 3.5 | 0.00 | 0.06 | 0.00 | 83 | 1014.0 |
| 20260506021530 | 36 | 106 | 1.7 | 3.5 | 0.00 | 0.06 | 0.00 | 83 | 1014.0 |
| 20260506021030 | 36 | 98 | 1.7 | 2.6 | 0.00 | 0.06 | 0.00 | 82 | 1013.9 |
| 20260506020529 | 36 | 136 | 1.7 | 2.6 | 0.00 | 0.06 | 0.00 | 82 | 1013.9 |
| 20260506020030 | 37 | 103 | 0.9 | 2.6 | 0.00 | 0.06 | 0.00 | 82 | 1013.9 |
| 20260506015532 | 37 | 115 | 1.7 | 3.5 | 0.00 | 0.06 | 0.00 | 82 | 1013.9 |
| 20260506015130 | 37 | 136 | 1.7 | 2.6 | 0.00 | 0.06 | 0.00 | 82 | 1014.0 |
| 20260506014542 | 37 | 109 | 0.9 | 2.6 | 0.00 | 0.06 | 0.00 | 82 | 1014.0 |
| 20260506014028 | 37 | 344 | 0.9 | 3.5 | 0.00 | 0.06 | 0.00 | 82 | 1014.2 |
| 20260506013527 | 36 | 325 | 0.9 | 3.5 | 0.00 | 0.06 | 0.00 | 82 | 1014.2 |
| 20260506013029 | 35 | 110 | 0.9 | 2.6 | 0.00 | 0.06 | 0.00 | 81 | 1014.2 |
| 20260506012525 | 35 | 80 | 0.0 | 3.5 | 0.00 | 0.06 | 0.00 | 80 | 1014.1 |
| 20260506012024 | 35 | 86 | 0.9 | 3.5 | 0.00 | 0.06 | 0.00 | 80 | 1014.0 |
| 20260506011526 | 35 | 96 | 1.7 | 3.5 | 0.00 | 0.06 | 0.00 | 80 | 1014.0 |
| 20260506011023 | 35 | 104 | 2.6 | 3.5 | 0.00 | 0.06 | 0.00 | 80 | 1013.9 |
| 20260506010523 | 35 | 90 | 1.7 | 3.5 | 0.00 | 0.06 | 0.00 | 79 | 1013.8 |
| 20260506010027 | 35 | 107 | 1.7 | 3.5 | 0.00 | 0.06 | 0.00 | 78 | 1013.9 |
| 20260506005521 | 35 | 89 | 1.7 | 3.5 | 0.00 | 0.06 | 0.00 | 79 | 1013.9 |
| 20260506005121 | 35 | 98 | 2.6 | 5.2 | 0.00 | 0.06 | 0.00 | 79 | 1013.8 |
| 20260506004534 | 35 | 109 | 2.6 | 5.2 | 0.00 | 0.06 | 0.00 | 79 | 1013.8 |
| 20260506004021 | 35 | 164 | 1.7 | 6.1 | 0.00 | 0.06 | 0.00 | 79 | 1013.8 |
| 20260506003521 | 35 | 108 | 3.5 | 6.1 | 0.00 | 0.06 | 0.00 | 79 | 1013.7 |
| 20260506003020 | 35 | 97 | 3.5 | 6.1 | 0.00 | 0.06 | 0.00 | 80 | 1013.7 |
| 20260506002519 | 35 | 95 | 3.5 | 6.1 | 0.00 | 0.06 | 0.00 | 80 | 1013.7 |
| 20260506002019 | 35 | 93 | 3.5 | 6.1 | 0.00 | 0.06 | 0.00 | 80 | 1013.8 |
| 20260506001518 | 35 | 90 | 3.5 | 6.1 | 0.00 | 0.06 | 0.00 | 81 | 1013.8 |
| 20260506001018 | 35 | 90 | 3.5 | 6.1 | 0.00 | 0.06 | 0.00 | 81 | 1014.0 |
| 20260506000516 | 35 | 109 | 3.5 | 5.2 | 0.00 | 0.06 | 0.06 | 81 | 1014.0 |
| 20260506000019 | 35 | 96 | 2.6 | 5.2 | 0.00 | 0.06 | 0.06 | 81 | 1014.0 |
| 20260505235516 | 35 | 101 | 3.5 | 5.2 | 0.00 | 0.06 | 0.06 | 81 | 1014.0 |
| 20260505235116 | 35 | 117 | 3.5 | 5.2 | 0.00 | 0.06 | 0.06 | 81 | 1014.1 |
| 20260505234518 | 35 | 96 | 3.5 | 5.2 | 0.00 | 0.06 | 0.06 | 81 | 1014.1 |
| 20260505234014 | 35 | 103 | 3.5 | 5.2 | 0.00 | 0.06 | 0.06 | 81 | 1014.0 |
| 20260505233516 | 35 | 107 | 2.6 | 5.2 | 0.00 | 0.06 | 0.06 | 81 | 1014.0 |
| 20260505233013 | 35 | 105 | 3.5 | 5.2 | 0.00 | 0.06 | 0.06 | 82 | 1014.0 |
| 20260505232514 | 35 | 98 | 2.6 | 6.1 | 0.00 | 0.06 | 0.06 | 82 | 1014.0 |
| 20260505232012 | 35 | 98 | 3.5 | 6.1 | 0.00 | 0.06 | 0.06 | 82 | 1014.0 |
| 20260505231612 | 35 | 106 | 2.6 | 6.1 | 0.00 | 0.06 | 0.06 | 82 | 1014.0 |
| 20260505231011 | 35 | 90 | 2.6 | 5.2 | 0.00 | 0.06 | 0.06 | 81 | 1013.9 |
| 20260505230516 | 35 | 96 | 2.6 | 6.1 | 0.00 | 0.06 | 0.06 | 81 | 1013.9 |
| 20260505230015 | 35 | 100 | 3.5 | 6.1 | 0.00 | 0.06 | 0.06 | 81 | 1013.9 |
| 20260505225511 | 35 | 88 | 2.6 | 6.1 | 0.00 | 0.06 | 0.06 | 81 | 1014.0 |
| 20260505225114 | 36 | 80 | 2.6 | 5.2 | 0.00 | 0.06 | 0.06 | 82 | 1014.0 |
| 20260505224514 | 35 | 101 | 2.6 | 5.2 | 0.00 | 0.06 | 0.06 | 82 | 1014.0 |
| 20260505224013 | 35 | 103 | 2.6 | 5.2 | 0.00 | 0.06 | 0.06 | 81 | 1014.0 |
| 20260505223517 | 35 | 109 | 2.6 | 5.2 | 0.00 | 0.06 | 0.06 | 81 | 1014.0 |
| 20260505223012 | 35 | 109 | 1.7 | 3.5 | 0.00 | 0.06 | 0.06 | 81 | 1014.0 |
| 20260505222512 | 36 | 101 | 1.7 | 5.2 | 0.00 | 0.06 | 0.06 | 80 | 1014.0 |
| 20260505222012 | 36 | 113 | 2.6 | 5.2 | 0.00 | 0.06 | 0.06 | 80 | 1014.0 |
| 20260505221511 | 36 | 111 | 2.6 | 6.1 | 0.00 | 0.06 | 0.06 | 80 | 1014.0 |
| 20260505221012 | 36 | 105 | 2.6 | 6.1 | 0.00 | 0.06 | 0.06 | 81 | 1014.0 |
| 20260505220510 | 36 | 94 | 3.5 | 4.3 | 0.00 | 0.06 | 0.06 | 81 | 1013.9 |
| 20260505220023 | 36 | 103 | 3.5 | 5.2 | 0.00 | 0.06 | 0.06 | 81 | 1014.0 |
| 20260505215512 | 36 | 101 | 2.6 | 5.2 | 0.00 | 0.06 | 0.06 | 81 | 1013.9 |
| 20260505215109 | 36 | 113 | 2.6 | 5.2 | 0.00 | 0.06 | 0.06 | 80 | 1013.9 |
| 20260505214513 | 36 | 108 | 1.7 | 5.2 | 0.00 | 0.06 | 0.06 | 80 | 1013.8 |
| 20260505214008 | 36 | 107 | 3.5 | 5.2 | 0.00 | 0.06 | 0.06 | 80 | 1013.7 |
| 20260505213508 | 36 | 105 | 2.6 | 5.2 | 0.00 | 0.06 | 0.06 | 80 | 1013.7 |
| 20260505213009 | 36 | 107 | 3.5 | 5.2 | 0.00 | 0.06 | 0.06 | 80 | 1013.7 |
| 20260505212508 | 36 | 101 | 2.6 | 5.2 | 0.00 | 0.06 | 0.06 | 80 | 1013.7 |
| 20260505212008 | 36 | 109 | 2.6 | 5.2 | 0.00 | 0.06 | 0.06 | 80 | 1013.6 |
| 20260505211507 | 36 | 109 | 3.5 | 5.2 | 0.00 | 0.06 | 0.06 | 80 | 1013.7 |
| 20260505211010 | 36 | 101 | 2.6 | 3.5 | 0.00 | 0.06 | 0.06 | 81 | 1013.7 |
| 20260505210506 | 36 | 112 | 2.6 | 5.2 | 0.00 | 0.06 | 0.06 | 80 | 1013.7 |
| 20260505210008 | 36 | 97 | 1.7 | 5.2 | 0.00 | 0.06 | 0.06 | 80 | 1013.7 |
| 20260505205513 | 36 | 107 | 2.6 | 5.2 | 0.00 | 0.06 | 0.06 | 80 | 1013.6 |
| 20260505205106 | 36 | 109 | 2.6 | 5.2 | 0.00 | 0.06 | 0.06 | 80 | 1013.6 |
| 20260505204514 | 36 | 112 | 2.6 | 5.2 | 0.00 | 0.06 | 0.06 | 79 | 1013.6 |
| 20260505204106 | 36 | 107 | 2.6 | 5.2 | 0.00 | 0.06 | 0.06 | 79 | 1013.6 |
| 20260505203505 | 37 | 112 | 2.6 | 5.2 | 0.00 | 0.06 | 0.06 | 79 | 1013.6 |
| 20260505203005 | 37 | 88 | 2.6 | 3.5 | 0.00 | 0.06 | 0.06 | 79 | 1013.6 |
| 20260505202505 | 37 | 101 | 2.6 | 5.2 | 0.00 | 0.06 | 0.06 | 78 | 1013.6 |
| 20260505202005 | 38 | 95 | 1.7 | 3.5 | 0.00 | 0.06 | 0.06 | 78 | 1013.6 |
| 20260505201505 | 38 | 103 | 1.7 | 3.5 | 0.00 | 0.06 | 0.06 | 78 | 1013.6 |
| 20260505201004 | 38 | 101 | 2.6 | 5.2 | 0.00 | 0.06 | 0.06 | 78 | 1013.6 |
| 20260505200512 | 38 | 102 | 2.6 | 5.2 | 0.00 | 0.06 | 0.06 | 77 | 1013.6 |
| 20260505200008 | 39 | 94 | 1.7 | 5.2 | 0.00 | 0.06 | 0.06 | 77 | 1013.7 |
| 20260505195503 | 39 | 76 | 2.6 | 5.2 | 0.00 | 0.06 | 0.06 | 76 | 1013.7 |
| 20260505195104 | 40 | 103 | 2.6 | 7.0 | 0.00 | 0.06 | 0.06 | 75 | 1013.7 |
| 20260505194505 | 40 | 92 | 2.6 | 7.0 | 0.00 | 0.06 | 0.06 | 75 | 1013.6 |
| 20260505194006 | 40 | 49 | 3.5 | 10.4 | 0.00 | 0.06 | 0.06 | 74 | 1013.7 |
| 20260505193503 | 41 | 41 | 4.3 | 10.4 | 0.00 | 0.06 | 0.06 | 74 | 1013.6 |
| 20260505193009 | 41 | 28 | 0.9 | 2.6 | 0.00 | 0.06 | 0.06 | 71 | 1013.4 |
| 20260505192502 | 41 | 43 | 0.9 | 2.6 | 0.00 | 0.06 | 0.06 | 72 | 1013.4 |
| 20260505192002 | 41 | 71 | 0.9 | 2.6 | 0.00 | 0.06 | 0.06 | 71 | 1013.3 |
| 20260505191606 | 41 | 26 | 0.0 | 3.5 | 0.00 | 0.06 | 0.06 | 71 | 1013.3 |
| 20260505191101 | 41 | 39 | 0.0 | 3.5 | 0.00 | 0.06 | 0.06 | 71 | 1013.2 |
| 20260505190601 | 41 | 67 | 0.9 | 3.5 | 0.00 | 0.06 | 0.06 | 71 | 1013.1 |
| 20260505190118 | 41 | 55 | 1.7 | 6.1 | 0.00 | 0.06 | 0.06 | 69 | 1013.1 |
| 20260505185559 | 41 | 53 | 2.6 | 5.2 | 0.00 | 0.06 | 0.06 | 69 | 1013.1 |
| 20260505185059 | 41 | 360 | 0.9 | 3.5 | 0.00 | 0.06 | 0.06 | 69 | 1013.1 |
| 20260505184609 | 41 | 9 | 0.9 | 3.5 | 0.00 | 0.06 | 0.06 | 69 | 1013.1 |
| 20260505184100 | 41 | 5 | 0.9 | 1.7 | 0.00 | 0.06 | 0.06 | 69 | 1013.1 |
| 20260505183659 | 41 | 125 | 0.0 | 2.6 | 0.00 | 0.06 | 0.06 | 69 | 1013.1 |
| 20260505183058 | 41 | 120 | 0.9 | 3.5 | 0.00 | 0.06 | 0.06 | 70 | 1013.0 |
| 20260505182557 | 41 | 46 | 1.7 | 7.0 | 0.00 | 0.06 | 0.06 | 71 | 1013.0 |
| 20260505182101 | 40 | 60 | 2.6 | 7.0 | 0.00 | 0.06 | 0.06 | 73 | 1013.0 |
| 20260505181600 | 40 | 90 | 2.6 | 6.1 | 0.00 | 0.06 | 0.06 | 75 | 1013.0 |
| 20260505181102 | 40 | 92 | 1.7 | 8.7 | 0.00 | 0.06 | 0.06 | 74 | 1013.0 |
| 20260505180559 | 40 | 92 | 3.5 | 8.7 | 0.00 | 0.06 | 0.06 | 74 | 1013.0 |
| 20260505180056 | 39 | 92 | 4.3 | 8.7 | 0.00 | 0.06 | 0.06 | 74 | 1013.1 |
| 20260505175557 | 39 | 27 | 2.6 | 7.8 | 0.00 | 0.06 | 0.06 | 74 | 1013.1 |
| 20260505175057 | 40 | 24 | 2.6 | 13.9 | 0.00 | 0.06 | 0.06 | 75 | 1013.2 |
| 20260505174558 | 41 | 5 | 2.6 | 13.9 | 0.00 | 0.06 | 0.06 | 75 | 1013.3 |
| 20260505174058 | 42 | 360 | 7.8 | 13.0 | 0.00 | 0.06 | 0.06 | 73 | 1013.2 |
| 20260505173556 | 42 | 355 | 0.9 | 2.6 | 0.00 | 0.06 | 0.06 | 71 | 1013.0 |
| 20260505173057 | 42 | 5 | 0.9 | 2.6 | 0.00 | 0.06 | 0.06 | 71 | 1012.9 |
| 20260505172557 | 42 | 126 | 0.0 | 2.6 | 0.00 | 0.06 | 0.06 | 70 | 1012.8 |
| 20260505172057 | 42 | 171 | 1.7 | 3.5 | 0.00 | 0.06 | 0.06 | 71 | 1012.9 |
| 20260505171556 | 42 | 174 | 1.7 | 3.5 | 0.00 | 0.06 | 0.06 | 72 | 1012.8 |
| 20260505171058 | 42 | 206 | 0.9 | 2.6 | 0.00 | 0.06 | 0.06 | 72 | 1012.8 |
| 20260505170604 | 42 | 211 | 1.7 | 2.6 | 0.00 | 0.06 | 0.06 | 73 | 1012.8 |
| 20260505170105 | 42 | 216 | 0.9 | 2.6 | 0.00 | 0.06 | 0.06 | 73 | 1012.8 |
| 20260505165555 | 42 | 194 | 1.7 | 2.6 | 0.00 | 0.06 | 0.06 | 73 | 1012.8 |
| 20260505165056 | 43 | 170 | 0.0 | 4.3 | 0.00 | 0.06 | 0.06 | 73 | 1012.9 |
| 20260505164556 | 43 | 153 | 0.9 | 4.3 | 0.00 | 0.06 | 0.06 | 73 | 1012.8 |
| 20260505164056 | 43 | 207 | 2.6 | 4.3 | 0.00 | 0.06 | 0.06 | 72 | 1012.8 |
| 20260505163558 | 43 | 138 | 0.9 | 5.2 | 0.00 | 0.06 | 0.06 | 73 | 1012.8 |
| 20260505163102 | 43 | 224 | 3.5 | 5.2 | 0.00 | 0.06 | 0.06 | 73 | 1012.8 |
| 20260505162555 | 44 | 182 | 2.6 | 4.3 | 0.00 | 0.06 | 0.06 | 74 | 1012.7 |
| 20260505162054 | 44 | 215 | 1.7 | 3.5 | 0.01 | 0.06 | 0.06 | 76 | 1012.8 |
| 20260505161555 | 43 | 225 | 0.9 | 3.5 | 0.01 | 0.06 | 0.06 | 76 | 1012.7 |
| 20260505161052 | 43 | 223 | 0.9 | 3.5 | 0.01 | 0.06 | 0.06 | 76 | 1012.7 |
| 20260505160552 | 43 | 223 | 0.9 | 3.5 | 0.01 | 0.06 | 0.06 | 75 | 1012.8 |
| 20260505153105 | 42 | 355 | 0.9 | 3.5 | 0.01 | 0.06 | 0.06 | 81 | 1012.9 |
| 20260505152549 | 41 | 162 | 0.0 | 7.0 | 0.01 | 0.06 | 0.06 | 80 | 1013.0 |
| 20260505152050 | 41 | 71 | 2.6 | 7.0 | 0.01 | 0.06 | 0.06 | 77 | 1013.0 |
| 20260505151550 | 42 | 5 | 1.7 | 5.2 | 0.00 | 0.05 | 0.05 | 76 | 1013.0 |
| 20260505151049 | 43 | 100 | 1.7 | 6.1 | 0.00 | 0.05 | 0.05 | 77 | 1013.0 |
| 20260505150549 | 43 | 204 | 2.6 | 7.0 | 0.00 | 0.05 | 0.05 | 80 | 1012.8 |
| 20260505150107 | 42 | 229 | 4.3 | 7.0 | 0.00 | 0.05 | 0.05 | 79 | 1012.8 |
| 20260505140546 | 39 | 355 | 0.9 | 4.3 | 0.00 | 0.09 | 0.05 | 83 | 1013.1 |
| 20260505124543 | 39 | 182 | 4.3 | 7.8 | 0.01 | 0.16 | 0.05 | 85 | 1013.0 |
| 20260505124043 | 40 | 211 | 4.3 | 7.8 | 0.01 | 0.16 | 0.05 | 86 | 1013.0 |
| 20260505123542 | 39 | 191 | 4.3 | 8.7 | 0.01 | 0.16 | 0.05 | 86 | 1013.1 |
| 20260505123104 | 40 | 216 | 5.2 | 8.7 | 0.01 | 0.16 | 0.05 | 86 | 1013.1 |
| 20260505122542 | 39 | 196 | 5.2 | 9.6 | 0.01 | 0.16 | 0.05 | 86 | 1013.0 |
| 20260505122043 | 39 | 211 | 5.2 | 10.4 | 0.01 | 0.16 | 0.05 | 86 | 1012.9 |
| 20260505121541 | 39 | 143 | 3.5 | 11.3 | 0.02 | 0.16 | 0.05 | 87 | 1012.8 |
| 20260505121044 | 39 | 190 | 5.2 | 11.3 | 0.02 | 0.16 | 0.05 | 88 | 1012.8 |
| 20260505120540 | 39 | 188 | 6.1 | 10.4 | 0.02 | 0.16 | 0.05 | 88 | 1012.8 |
| 20260505120049 | 38 | 160 | 3.5 | 10.4 | 0.03 | 0.16 | 0.05 | 88 | 1012.9 |
| 20260505115541 | 37 | 181 | 5.2 | 7.8 | 0.04 | 0.16 | 0.05 | 88 | 1012.9 |
| 20260505115040 | 36 | 202 | 5.2 | 8.7 | 0.04 | 0.16 | 0.05 | 87 | 1013.1 |
| 20260505114551 | 36 | 169 | 5.2 | 10.4 | 0.04 | 0.16 | 0.05 | 87 | 1013.1 |
| 20260505114040 | 37 | 174 | 3.5 | 7.0 | 0.03 | 0.15 | 0.04 | 87 | 1013.1 |
| 20260505113539 | 37 | 198 | 4.3 | 7.0 | 0.03 | 0.15 | 0.04 | 87 | 1013.1 |
| 20260505113039 | 36 | 206 | 3.5 | 7.0 | 0.03 | 0.15 | 0.04 | 86 | 1013.1 |
| 20260505112538 | 36 | 150 | 3.5 | 7.0 | 0.03 | 0.15 | 0.04 | 85 | 1013.1 |
| 20260505112037 | 36 | 175 | 4.3 | 7.0 | 0.03 | 0.15 | 0.04 | 84 | 1013.1 |
| 20260505111538 | 36 | 143 | 3.5 | 7.0 | 0.03 | 0.15 | 0.04 | 83 | 1013.1 |
| 20260505111037 | 36 | 202 | 4.3 | 7.0 | 0.02 | 0.14 | 0.03 | 82 | 1013.2 |
| 20260505110537 | 37 | 200 | 2.6 | 7.0 | 0.02 | 0.14 | 0.02 | 81 | 1013.1 |
| 20260505102033 | 40 | 257 | 5.2 | 11.3 | 0.00 | 0.13 | 0.01 | 73 | 1012.8 |
| 20260505101537 | 40 | 232 | 9.6 | 13.0 | 0.00 | 0.13 | 0.01 | 74 | 1012.6 |
| 20260505101031 | 40 | 186 | 4.3 | 10.4 | 0.00 | 0.13 | 0.01 | 71 | 1012.3 |
| 20260505100535 | 41 | 227 | 7.8 | 10.4 | 0.00 | 0.13 | 0.01 | 72 | 1012.4 |
| 20260505100033 | 41 | 186 | 1.7 | 8.7 | 0.00 | 0.13 | 0.01 | 66 | 1012.3 |
| 20260505095531 | 42 | 275 | 5.2 | 11.3 | 0.00 | 0.13 | 0.01 | 68 | 1012.3 |
| 20260505095030 | 42 | 218 | 3.5 | 9.6 | 0.00 | 0.13 | 0.01 | 65 | 1012.0 |
| 20260505094531 | 42 | 227 | 3.5 | 9.6 | 0.00 | 0.13 | 0.01 | 65 | 1012.0 |
| 20260505094031 | 42 | 223 | 6.1 | 9.6 | 0.00 | 0.13 | 0.01 | 65 | 1012.0 |
| 20260505093530 | 42 | 213 | 4.3 | 7.0 | 0.00 | 0.13 | 0.01 | 63 | 1012.0 |
| 20260505093037 | 42 | 209 | 3.5 | 7.0 | 0.00 | 0.13 | 0.01 | 64 | 1012.0 |
| 20260505092530 | 42 | 202 | 4.3 | 7.8 | 0.00 | 0.13 | 0.01 | 63 | 1012.0 |
| 20260505092028 | 42 | 217 | 5.2 | 7.8 | 0.00 | 0.13 | 0.01 | 63 | 1012.0 |
| 20260505091539 | 42 | 203 | 4.3 | 7.0 | 0.00 | 0.13 | 0.01 | 60 | 1012.0 |
| 20260505091028 | 42 | 195 | 3.5 | 6.1 | 0.00 | 0.13 | 0.01 | 60 | 1011.9 |
| 20260505090528 | 42 | 213 | 3.5 | 7.0 | 0.00 | 0.13 | 0.01 | 60 | 1012.0 |
| 20260505090043 | 43 | 189 | 2.6 | 7.0 | 0.00 | 0.13 | 0.01 | 61 | 1012.0 |
| 20260505085526 | 43 | 200 | 4.3 | 7.0 | 0.01 | 0.13 | 0.01 | 63 | 1012.0 |
| 20260505085026 | 42 | 209 | 2.6 | 6.1 | 0.01 | 0.13 | 0.01 | 67 | 1012.0 |
| 20260505084526 | 42 | 213 | 2.6 | 7.8 | 0.01 | 0.13 | 0.01 | 66 | 1011.9 |
| 20260505084023 | 42 | 233 | 4.3 | 7.8 | 0.01 | 0.13 | 0.01 | 69 | 1012.0 |
| 20260505083522 | 41 | 212 | 2.6 | 5.2 | 0.01 | 0.13 | 0.01 | 67 | 1012.0 |
| 20260505083026 | 41 | 239 | 1.7 | 5.2 | 0.01 | 0.13 | 0.01 | 68 | 1011.9 |
| 20260505082524 | 41 | 227 | 3.5 | 5.2 | 0.01 | 0.13 | 0.01 | 69 | 1011.9 |
| 20260505082021 | 41 | 225 | 2.6 | 6.1 | 0.01 | 0.13 | 0.01 | 70 | 1011.8 |
| 20260505081529 | 41 | 219 | 2.6 | 5.2 | 0.01 | 0.13 | 0.01 | 72 | 1011.9 |
| 20260505081019 | 41 | 177 | 0.9 | 4.3 | 0.01 | 0.13 | 0.01 | 74 | 1011.8 |
| 20260505080518 | 40 | 190 | 1.7 | 4.3 | 0.01 | 0.13 | 0.01 | 74 | 1011.9 |
| 20260505080038 | 40 | 200 | 1.7 | 3.5 | 0.01 | 0.13 | 0.01 | 75 | 1011.9 |
| 20260505075515 | 40 | 219 | 1.7 | 3.5 | 0.01 | 0.13 | 0.01 | 75 | 1011.9 |
| 20260505075014 | 40 | 132 | 0.9 | 1.7 | 0.00 | 0.12 | 0.00 | 78 | 1012.1 |
| 20260505074515 | 39 | 129 | 0.9 | 1.7 | 0.00 | 0.12 | 0.00 | 78 | 1012.1 |
| 20260505074013 | 39 | 174 | 0.9 | 3.5 | 0.00 | 0.12 | 0.00 | 77 | 1012.1 |
| 20260505073512 | 38 | 167 | 0.9 | 2.6 | 0.00 | 0.12 | 0.00 | 79 | 1012.1 |
| 20260505073015 | 37 | 135 | 0.9 | 2.6 | 0.00 | 0.12 | 0.00 | 79 | 1012.2 |
| 20260505072509 | 37 | 138 | 0.9 | 2.6 | 0.00 | 0.12 | 0.00 | 79 | 1012.2 |
| 20260505072012 | 36 | 111 | 0.9 | 2.6 | 0.00 | 0.12 | 0.00 | 79 | 1012.2 |
| 20260505071509 | 36 | 132 | 0.9 | 2.6 | 0.00 | 0.12 | 0.00 | 79 | 1012.1 |
| 20260505071008 | 36 | 126 | 1.7 | 2.6 | 0.00 | 0.12 | 0.00 | 79 | 1012.2 |
| 20260505070510 | 36 | 128 | 0.9 | 2.6 | 0.00 | 0.12 | 0.00 | 79 | 1012.2 |
| 20260505070010 | 36 | 126 | 0.9 | 2.6 | 0.00 | 0.12 | 0.00 | 79 | 1012.3 |
| 20260505065508 | 36 | 138 | 0.9 | 3.5 | 0.00 | 0.12 | 0.00 | 79 | 1012.3 |
| 20260505065006 | 35 | 135 | 1.7 | 2.6 | 0.00 | 0.12 | 0.00 | 80 | 1012.3 |
| 20260505064508 | 35 | 133 | 0.9 | 2.6 | 0.00 | 0.12 | 0.00 | 80 | 1012.2 |
| 20260505064012 | 35 | 147 | 0.9 | 2.6 | 0.00 | 0.12 | 0.00 | 81 | 1012.2 |
| 20260505063513 | 35 | 149 | 0.9 | 2.6 | 0.00 | 0.12 | 0.00 | 81 | 1012.2 |
| 20260505063007 | 35 | 141 | 0.9 | 2.6 | 0.00 | 0.12 | 0.00 | 81 | 1012.2 |
| 20260505062507 | 35 | 141 | 0.9 | 2.6 | 0.00 | 0.12 | 0.00 | 82 | 1012.1 |
| 20260505062006 | 35 | 146 | 1.7 | 2.6 | 0.00 | 0.12 | 0.00 | 82 | 1012.1 |
| 20260505061510 | 35 | 148 | 0.9 | 2.6 | 0.00 | 0.12 | 0.00 | 82 | 1012.1 |
| 20260505061006 | 35 | 152 | 0.9 | 2.6 | 0.00 | 0.12 | 0.00 | 82 | 1012.1 |
| 20260505060508 | 34 | 132 | 0.9 | 2.6 | 0.00 | 0.12 | 0.00 | 82 | 1012.2 |
| 20260505060013 | 34 | 103 | 0.9 | 2.6 | 0.00 | 0.12 | 0.00 | 82 | 1012.2 |
| 20260505055506 | 34 | 97 | 1.7 | 2.6 | 0.00 | 0.12 | 0.00 | 82 | 1012.2 |
| 20260505055006 | 34 | 110 | 0.9 | 3.5 | 0.00 | 0.12 | 0.00 | 81 | 1012.2 |
| 20260505054510 | 34 | 101 | 1.7 | 3.5 | 0.00 | 0.12 | 0.00 | 81 | 1012.1 |
| 20260505054003 | 34 | 90 | 1.7 | 3.5 | 0.00 | 0.12 | 0.00 | 81 | 1012.1 |
| 20260505053504 | 34 | 96 | 1.7 | 3.5 | 0.00 | 0.12 | 0.00 | 82 | 1012.1 |
| 20260505053009 | 34 | 105 | 1.7 | 3.5 | 0.00 | 0.12 | 0.00 | 82 | 1012.1 |
| 20260505052506 | 34 | 102 | 1.7 | 3.5 | 0.00 | 0.12 | 0.00 | 82 | 1012.1 |
| 20260505052003 | 33 | 96 | 1.7 | 3.5 | 0.00 | 0.12 | 0.00 | 81 | 1012.2 |
| 20260505051504 | 33 | 84 | 1.7 | 3.5 | 0.00 | 0.12 | 0.00 | 81 | 1012.1 |
| 20260505051003 | 33 | 98 | 1.7 | 3.5 | 0.00 | 0.12 | 0.00 | 81 | 1012.2 |
| 20260505050506 | 33 | 108 | 1.7 | 3.5 | 0.00 | 0.12 | 0.00 | 81 | 1012.1 |
| 20260505041610 | 33 | 94 | 1.7 | 3.5 | 0.00 | 0.12 | 0.00 | 80 | 1011.8 |
| 20260505041059 | 33 | 109 | 2.6 | 3.5 | 0.00 | 0.12 | 0.00 | 80 | 1011.8 |
| 20260505040603 | 33 | 108 | 1.7 | 3.5 | 0.00 | 0.12 | 0.00 | 80 | 1011.8 |
| 20260505035606 | 33 | 106 | 1.7 | 3.5 | 0.00 | 0.12 | 0.00 | 79 | 1011.7 |
| 20260505035057 | 33 | 92 | 1.7 | 3.5 | 0.00 | 0.12 | 0.00 | 78 | 1011.7 |
| 20260505034056 | 34 | 96 | 1.7 | 3.5 | 0.00 | 0.12 | 0.00 | 78 | 1011.6 |
| 20260505033555 | 34 | 96 | 0.9 | 3.5 | 0.00 | 0.12 | 0.00 | 78 | 1011.5 |
| 20260505033055 | 35 | 96 | 1.7 | 5.2 | 0.00 | 0.12 | 0.00 | 78 | 1011.5 |
| 20260505032554 | 34 | 98 | 2.6 | 5.2 | 0.00 | 0.12 | 0.00 | 79 | 1011.6 |
| 20260505032100 | 35 | 90 | 1.7 | 4.3 | 0.00 | 0.12 | 0.00 | 79 | 1011.5 |
| 20260505031559 | 35 | 104 | 1.7 | 3.5 | 0.00 | 0.12 | 0.00 | 79 | 1011.6 |
| 20260505031054 | 35 | 88 | 1.7 | 4.3 | 0.00 | 0.12 | 0.00 | 79 | 1011.7 |
| 20260505030554 | 35 | 88 | 2.6 | 4.3 | 0.00 | 0.12 | 0.00 | 79 | 1011.6 |
| 20260505030054 | 35 | 92 | 2.6 | 4.3 | 0.00 | 0.12 | 0.00 | 79 | 1011.7 |
| 20260505025554 | 35 | 85 | 1.7 | 3.5 | 0.00 | 0.12 | 0.00 | 79 | 1011.8 |
| 20260505025053 | 35 | 71 | 1.7 | 3.5 | 0.00 | 0.12 | 0.00 | 79 | 1011.9 |
| 20260505024054 | 35 | 85 | 1.7 | 4.3 | 0.00 | 0.12 | 0.00 | 79 | 1011.9 |